| time (UTC) | temp F | wind direction | speed MPH | gust MPH | rain 1hr in | rain 24hr in | rain mn in | humidity % | barometer mb |
| 20260503232814 | 82 | 349 | 5.0 | 7.0 | 0.00 | 0.00 | 0.00 | 42 | 1019.3 |
| 20260503232312 | 82 | 342 | 4.0 | 6.0 | 0.00 | 0.00 | 0.00 | 45 | 1019.4 |
| 20260503231810 | 82 | 73 | 5.0 | 7.0 | 0.00 | 0.00 | 0.00 | 42 | 1019.4 |
| 20260503231306 | 82 | 339 | 5.0 | 7.0 | 0.00 | 0.00 | 0.00 | 42 | 1019.8 |
| 20260503230802 | 82 | 90 | 0.0 | 5.0 | 0.00 | 0.00 | 0.00 | 43 | 1019.7 |
| 20260503230300 | 83 | 325 | 1.0 | 6.0 | 0.00 | 0.00 | 0.00 | 44 | 1019.5 |
| 20260503225757 | 84 | 114 | 0.0 | 3.0 | 0.00 | 0.00 | 0.00 | 47 | 1019.7 |
| 20260503225252 | 82 | 0 | 0.0 | 6.0 | 0.00 | 0.00 | 0.00 | 43 | 1019.7 |
| 20260503224749 | 82 | 354 | 4.0 | 7.0 | 0.00 | 0.00 | 0.00 | 43 | 1019.8 |
| 20260503224247 | 82 | 317 | 6.0 | 8.0 | 0.00 | 0.00 | 0.00 | 42 | 1020.0 |
| 20260503223744 | 81 | 55 | 2.0 | 7.0 | 0.00 | 0.00 | 0.00 | 44 | 1020.2 |
| 20260503223242 | 82 | 0 | 0.0 | 5.0 | 0.00 | 0.00 | 0.00 | 45 | 1020.0 |
| 20260503222738 | 81 | 9 | 5.0 | 9.0 | 0.00 | 0.00 | 0.00 | 43 | 1020.1 |
| 20260503222236 | 81 | 90 | 0.0 | 8.0 | 0.00 | 0.00 | 0.00 | 43 | 1020.1 |
| 20260503221734 | 82 | 37 | 6.0 | 6.0 | 0.00 | 0.00 | 0.00 | 42 | 1020.2 |
| 20260503221231 | 81 | 24 | 2.0 | 5.0 | 0.00 | 0.00 | 0.00 | 41 | 1020.4 |
| 20260503220728 | 81 | 318 | 6.0 | 8.0 | 0.00 | 0.00 | 0.00 | 42 | 1020.3 |
| 20260503220225 | 81 | 318 | 5.0 | 8.0 | 0.00 | 0.00 | 0.00 | 44 | 1020.5 |
| 20260503215721 | 81 | 330 | 3.0 | 7.0 | 0.00 | 0.00 | 0.00 | 41 | 1020.3 |
| 20260503215219 | 80 | 306 | 4.0 | 4.0 | 0.00 | 0.00 | 0.00 | 42 | 1020.5 |
| 20260503214717 | 81 | 202 | 2.0 | 5.0 | 0.00 | 0.00 | 0.00 | 43 | 1020.3 |
| 20260503214213 | 80 | 341 | 2.0 | 4.0 | 0.00 | 0.00 | 0.00 | 44 | 1020.6 |
| 20260503213711 | 80 | 337 | 1.0 | 9.0 | 0.00 | 0.00 | 0.00 | 46 | 1020.6 |
| 20260503213208 | 80 | 263 | 0.0 | 11.0 | 0.00 | 0.00 | 0.00 | 47 | 1020.5 |
| 20260503212705 | 80 | 323 | 5.0 | 7.0 | 0.00 | 0.00 | 0.00 | 45 | 1020.5 |
| 20260503212203 | 81 | 90 | 0.0 | 4.0 | 0.00 | 0.00 | 0.00 | 49 | 1020.5 |
| 20260503211700 | 79 | 339 | 2.0 | 5.0 | 0.00 | 0.00 | 0.00 | 45 | 1020.6 |
| 20260503211155 | 79 | 341 | 5.0 | 7.0 | 0.00 | 0.00 | 0.00 | 44 | 1020.9 |
| 20260503210652 | 79 | 325 | 5.0 | 6.0 | 0.00 | 0.00 | 0.00 | 50 | 1021.0 |
| 20260503210149 | 78 | 315 | 5.0 | 5.0 | 0.00 | 0.00 | 0.00 | 48 | 1020.8 |
| 20260503205644 | 79 | 337 | 7.0 | 7.0 | 0.00 | 0.00 | 0.00 | 49 | 1021.3 |
| 20260503205141 | 78 | 327 | 5.0 | 7.0 | 0.00 | 0.00 | 0.00 | 47 | 1021.1 |
| 20260503204637 | 78 | 90 | 0.0 | 6.0 | 0.00 | 0.00 | 0.00 | 45 | 1021.4 |
| 20260503204135 | 78 | 305 | 2.0 | 9.0 | 0.00 | 0.00 | 0.00 | 49 | 1021.4 |
| 20260503203632 | 78 | 22 | 6.0 | 7.0 | 0.00 | 0.00 | 0.00 | 48 | 1021.3 |
| 20260503203130 | 78 | 120 | 0.0 | 7.0 | 0.00 | 0.00 | 0.00 | 47 | 1021.3 |
| 20260503202627 | 78 | 339 | 3.0 | 4.0 | 0.00 | 0.00 | 0.00 | 49 | 1021.6 |
| 20260503202125 | 77 | 345 | 5.0 | 9.0 | 0.00 | 0.00 | 0.00 | 48 | 1021.4 |
| 20260503201623 | 77 | 83 | 6.0 | 6.0 | 0.00 | 0.00 | 0.00 | 49 | 1021.5 |
| 20260503201120 | 77 | 129 | 5.0 | 5.0 | 0.00 | 0.00 | 0.00 | 49 | 1021.7 |
| 20260503200616 | 77 | 351 | 4.0 | 6.0 | 0.00 | 0.00 | 0.00 | 47 | 1021.7 |
| 20260503200112 | 77 | 80 | 3.0 | 6.0 | 0.00 | 0.00 | 0.00 | 47 | 1021.8 |
| 20260503195609 | 77 | 157 | 0.0 | 7.0 | 0.00 | 0.00 | 0.00 | 48 | 1021.7 |
| 20260503195106 | 76 | 348 | 7.0 | 9.0 | 0.00 | 0.00 | 0.00 | 50 | 1022.0 |
| 20260503194603 | 75 | 75 | 5.0 | 9.0 | 0.00 | 0.00 | 0.00 | 50 | 1022.2 |
| 20260503194058 | 75 | 331 | 5.0 | 10.0 | 0.00 | 0.00 | 0.00 | 49 | 1022.0 |
| 20260503193555 | 75 | 336 | 2.0 | 8.0 | 0.00 | 0.00 | 0.00 | 50 | 1022.1 |
| 20260503193050 | 75 | 283 | 0.0 | 7.0 | 0.00 | 0.00 | 0.00 | 49 | 1022.2 |
| 20260503192547 | 75 | 7 | 4.0 | 7.0 | 0.00 | 0.00 | 0.00 | 50 | 1022.3 |
| 20260503192043 | 76 | 90 | 2.0 | 8.0 | 0.00 | 0.00 | 0.00 | 50 | 1022.2 |
| 20260503191539 | 75 | 0 | 5.0 | 8.0 | 0.00 | 0.00 | 0.00 | 53 | 1022.4 |
| 20260503191036 | 74 | 334 | 3.0 | 7.0 | 0.00 | 0.00 | 0.00 | 55 | 1022.2 |
| 20260503190534 | 74 | 25 | 3.0 | 8.0 | 0.00 | 0.00 | 0.00 | 54 | 1022.2 |
| 20260503190031 | 74 | 321 | 4.0 | 9.0 | 0.00 | 0.00 | 0.00 | 51 | 1022.4 |
| 20260503185527 | 74 | 322 | 3.0 | 7.0 | 0.00 | 0.00 | 0.00 | 50 | 1022.4 |
| 20260503185027 | 75 | 343 | 5.0 | 6.0 | 0.00 | 0.00 | 0.00 | 54 | 1022.6 |
| 20260503184523 | 74 | 0 | 1.0 | 5.0 | 0.00 | 0.00 | 0.00 | 54 | 1022.3 |
| 20260503184020 | 74 | 294 | 0.0 | 5.0 | 0.00 | 0.00 | 0.00 | 53 | 1022.5 |
| 20260503183516 | 73 | 321 | 4.0 | 5.0 | 0.00 | 0.00 | 0.00 | 55 | 1022.5 |
| 20260503183013 | 72 | 354 | 4.0 | 9.0 | 0.00 | 0.00 | 0.00 | 55 | 1022.7 |
| 20260503182512 | 74 | 34 | 8.0 | 9.0 | 0.00 | 0.00 | 0.00 | 53 | 1022.9 |
| 20260503182009 | 72 | 262 | 1.0 | 7.0 | 0.00 | 0.00 | 0.00 | 55 | 1022.9 |
| 20260503181506 | 72 | 6 | 3.0 | 6.0 | 0.00 | 0.00 | 0.00 | 57 | 1022.9 |
| 20260503181002 | 72 | 319 | 2.0 | 8.0 | 0.00 | 0.00 | 0.00 | 56 | 1023.1 |
| 20260503180500 | 71 | 324 | 9.0 | 12.0 | 0.00 | 0.00 | 0.00 | 55 | 1022.9 |
| 20260503175957 | 72 | 225 | 2.0 | 5.0 | 0.00 | 0.00 | 0.00 | 60 | 1023.1 |
| 20260503175455 | 71 | 75 | 3.0 | 9.0 | 0.00 | 0.00 | 0.00 | 58 | 1023.1 |
| 20260503174951 | 71 | 41 | 4.0 | 7.0 | 0.00 | 0.00 | 0.00 | 57 | 1023.1 |
| 20260503174449 | 70 | 338 | 3.0 | 7.0 | 0.00 | 0.00 | 0.00 | 59 | 1023.1 |
| 20260503173944 | 70 | 297 | 6.0 | 7.0 | 0.00 | 0.00 | 0.00 | 58 | 1022.9 |
| 20260503173440 | 70 | 0 | 0.0 | 5.0 | 0.00 | 0.00 | 0.00 | 58 | 1023.0 |
| 20260503172937 | 69 | 327 | 6.0 | 10.0 | 0.00 | 0.00 | 0.00 | 58 | 1023.1 |
| 20260503172434 | 69 | 321 | 5.0 | 8.0 | 0.00 | 0.00 | 0.00 | 59 | 1023.1 |
| 20260503171931 | 69 | 29 | 2.0 | 7.0 | 0.00 | 0.00 | 0.00 | 59 | 1023.2 |
| 20260503171427 | 69 | 28 | 4.0 | 7.0 | 0.00 | 0.00 | 0.00 | 59 | 1023.1 |
| 20260503170925 | 69 | 0 | 0.0 | 5.0 | 0.00 | 0.00 | 0.00 | 60 | 1023.0 |
| 20260503170421 | 68 | 2 | 3.0 | 5.0 | 0.00 | 0.00 | 0.00 | 58 | 1023.3 |
| 20260503150814 | 62 | 74 | 1.0 | 4.0 | 0.00 | 0.00 | 0.00 | 75 | 1023.4 |
| 20260503150309 | 62 | 10 | 0.0 | 3.0 | 0.00 | 0.00 | 0.00 | 73 | 1023.5 |
| 20260503140234 | 49 | 352 | 0.0 | 1.0 | 0.00 | 0.00 | 0.00 | 99 | 1023.3 |
| 20260503131203 | 47 | 0 | 0.0 | 0.0 | 0.00 | 0.00 | 0.00 | 99 | 1023.0 |
| 20260503130701 | 47 | 99 | 0.0 | 1.0 | 0.00 | 0.00 | 0.00 | 99 | 1023.1 |
| 20260503130158 | 47 | 7 | 0.0 | 1.0 | 0.00 | 0.00 | 0.00 | 99 | 1023.0 |
| 20260503120124 | 48 | 346 | 0.0 | 1.0 | 0.00 | 0.00 | 0.00 | 96 | 1023.0 |
| 20260503110551 | 49 | 353 | 0.0 | 0.0 | 0.00 | 0.00 | 0.00 | 94 | 1023.2 |
| 20260503090438 | 51 | 8 | 0.0 | 1.0 | 0.00 | 0.00 | 0.00 | 92 | 1023.3 |
| 20260503081404 | 51 | 346 | 0.0 | 1.0 | 0.00 | 0.00 | 0.00 | 90 | 1023.7 |
| 20260503080901 | 51 | 0 | 1.0 | 1.0 | 0.00 | 0.00 | 0.00 | 92 | 1023.5 |
| 20260503080358 | 51 | 353 | 1.0 | 1.0 | 0.00 | 0.00 | 0.00 | 92 | 1023.6 |
| 20260503072834 | 52 | 0 | 1.0 | 1.0 | 0.00 | 0.00 | 0.00 | 90 | 1023.6 |
| 20260503072332 | 52 | 353 | 1.0 | 2.0 | 0.00 | 0.00 | 0.00 | 91 | 1023.7 |
| 20260503071827 | 52 | 0 | 0.0 | 1.0 | 0.00 | 0.00 | 0.00 | 90 | 1023.5 |
| 20260503071325 | 52 | 0 | 1.0 | 2.0 | 0.00 | 0.00 | 0.00 | 90 | 1023.7 |
| 20260503070821 | 51 | 353 | 0.0 | 1.0 | 0.00 | 0.00 | 0.00 | 90 | 1023.6 |
| 20260503070320 | 52 | 8 | 0.0 | 2.0 | 0.00 | 0.00 | 0.00 | 92 | 1023.3 |
| 20260503060238 | 53 | 345 | 0.0 | 0.0 | 0.00 | 0.00 | 0.00 | 89 | 1023.4 |
| 20260503054725 | 54 | 0 | 1.0 | 1.0 | 0.00 | 0.00 | 0.00 | 88 | 1023.4 |
| 20260503054222 | 54 | 8 | 0.0 | 0.0 | 0.00 | 0.00 | 0.00 | 87 | 1023.3 |
| 20260503053720 | 54 | 8 | 0.0 | 0.0 | 0.00 | 0.00 | 0.00 | 86 | 1023.2 |
| 20260503053219 | 54 | 0 | 0.0 | 1.0 | 0.00 | 0.00 | 0.00 | 88 | 1023.4 |
| 20260503052714 | 54 | 0 | 1.0 | 2.0 | 0.00 | 0.00 | 0.00 | 89 | 1023.4 |
| 20260503052211 | 54 | 8 | 0.0 | 1.0 | 0.00 | 0.00 | 0.00 | 88 | 1023.4 |
| 20260503051707 | 54 | 7 | 1.0 | 1.0 | 0.00 | 0.00 | 0.00 | 87 | 1023.3 |
| 20260503051205 | 54 | 20 | 0.0 | 1.0 | 0.00 | 0.00 | 0.00 | 87 | 1023.3 |
| 20260503050701 | 55 | 15 | 1.0 | 3.0 | 0.00 | 0.00 | 0.00 | 89 | 1023.2 |
| 20260503050157 | 55 | 15 | 0.0 | 2.0 | 0.00 | 0.00 | 0.00 | 88 | 1023.2 |
| 20260503045655 | 55 | 14 | 0.0 | 0.0 | 0.00 | 0.00 | 0.00 | 88 | 1023.2 |
| 20260503045152 | 56 | 23 | 0.0 | 1.0 | 0.00 | 0.00 | 0.00 | 87 | 1023.0 |
| 20260503044648 | 55 | 29 | 0.0 | 1.0 | 0.00 | 0.00 | 0.00 | 86 | 1022.8 |
| 20260503044146 | 56 | 7 | 0.0 | 0.0 | 0.00 | 0.00 | 0.00 | 86 | 1023.2 |
| 20260503043643 | 56 | 345 | 0.0 | 2.0 | 0.00 | 0.00 | 0.00 | 86 | 1022.9 |
| 20260503043140 | 56 | 23 | 1.0 | 1.0 | 0.00 | 0.00 | 0.00 | 85 | 1022.8 |
| 20260503042636 | 56 | 8 | 0.0 | 2.0 | 0.00 | 0.00 | 0.00 | 86 | 1022.8 |
| 20260503042132 | 56 | 103 | 0.0 | 1.0 | 0.00 | 0.00 | 0.00 | 86 | 1022.9 |
| 20260503041629 | 57 | 14 | 0.0 | 2.0 | 0.00 | 0.00 | 0.00 | 87 | 1022.9 |
| 20260503041127 | 57 | 345 | 1.0 | 1.0 | 0.00 | 0.00 | 0.00 | 86 | 1022.8 |
| 20260503040624 | 57 | 107 | 2.0 | 2.0 | 0.00 | 0.00 | 0.00 | 86 | 1022.7 |
| 20260503040121 | 57 | 15 | 0.0 | 0.0 | 0.00 | 0.00 | 0.00 | 87 | 1022.5 |
| 20260503035618 | 58 | 15 | 0.0 | 1.0 | 0.00 | 0.00 | 0.00 | 85 | 1022.6 |
| 20260503035116 | 58 | 90 | 0.0 | 0.0 | 0.00 | 0.00 | 0.00 | 84 | 1022.4 |
| 20260503034613 | 59 | 90 | 0.0 | 0.0 | 0.00 | 0.00 | 0.00 | 83 | 1022.1 |
| 20260503034110 | 59 | 0 | 0.0 | 0.0 | 0.00 | 0.00 | 0.00 | 83 | 1022.3 |
| 20260503033607 | 60 | 353 | 1.0 | 1.0 | 0.00 | 0.00 | 0.00 | 81 | 1022.3 |
| 20260503033105 | 60 | 29 | 1.0 | 2.0 | 0.00 | 0.00 | 0.00 | 77 | 1022.2 |
| 20260503032603 | 61 | 77 | 0.0 | 0.0 | 0.00 | 0.00 | 0.00 | 78 | 1022.2 |
| 20260503032101 | 61 | 0 | 1.0 | 1.0 | 0.00 | 0.00 | 0.00 | 74 | 1022.3 |
| 20260503031558 | 62 | 106 | 0.0 | 1.0 | 0.00 | 0.00 | 0.00 | 77 | 1022.2 |
| 20260503031055 | 63 | 166 | 0.0 | 1.0 | 0.00 | 0.00 | 0.00 | 73 | 1022.1 |
| 20260503030551 | 64 | 114 | 0.0 | 1.0 | 0.00 | 0.00 | 0.00 | 72 | 1022.2 |
| 20260503030048 | 64 | 106 | 0.0 | 1.0 | 0.00 | 0.00 | 0.00 | 69 | 1022.0 |
| 20260503025545 | 65 | 20 | 0.0 | 0.0 | 0.00 | 0.00 | 0.00 | 70 | 1022.0 |
| 20260503025043 | 66 | 106 | 0.0 | 2.0 | 0.00 | 0.00 | 0.00 | 68 | 1022.1 |
| 20260503024538 | 66 | 103 | 0.0 | 1.0 | 0.00 | 0.00 | 0.00 | 67 | 1021.8 |
| 20260503024036 | 67 | 74 | 0.0 | 2.0 | 0.00 | 0.00 | 0.00 | 64 | 1021.9 |
| 20260503023533 | 67 | 99 | 0.0 | 0.0 | 0.00 | 0.00 | 0.00 | 64 | 1022.0 |
| 20260503023031 | 68 | 105 | 0.0 | 2.0 | 0.00 | 0.00 | 0.00 | 61 | 1021.9 |
| 20260503022526 | 69 | 305 | 0.0 | 3.0 | 0.00 | 0.00 | 0.00 | 61 | 1021.8 |
| 20260503022021 | 69 | 99 | 0.0 | 1.0 | 0.00 | 0.00 | 0.00 | 60 | 1021.7 |
| 20260503021518 | 70 | 187 | 0.0 | 3.0 | 0.00 | 0.00 | 0.00 | 58 | 1021.7 |
| 20260503021015 | 72 | 165 | 0.0 | 3.0 | 0.00 | 0.00 | 0.00 | 53 | 1021.9 |
| 20260503020512 | 74 | 261 | 0.0 | 0.0 | 0.00 | 0.00 | 0.00 | 54 | 1021.6 |
| 20260503020009 | 72 | 70 | 3.0 | 4.0 | 0.00 | 0.00 | 0.00 | 55 | 1021.7 |
| 20260503015506 | 73 | 70 | 0.0 | 4.0 | 0.00 | 0.00 | 0.00 | 53 | 1021.6 |
| 20260503015002 | 74 | 66 | 0.0 | 3.0 | 0.00 | 0.00 | 0.00 | 52 | 1021.5 |
| 20260503014459 | 76 | 285 | 0.0 | 4.0 | 0.00 | 0.00 | 0.00 | 52 | 1021.8 |
| 20260503013957 | 74 | 348 | 0.0 | 3.0 | 0.00 | 0.00 | 0.00 | 53 | 1021.7 |
| 20260503013454 | 73 | 194 | 0.0 | 3.0 | 0.00 | 0.00 | 0.00 | 53 | 1021.7 |
| 20260503012951 | 74 | 180 | 0.0 | 2.0 | 0.00 | 0.00 | 0.00 | 53 | 1021.8 |
| 20260503012449 | 75 | 209 | 0.0 | 2.0 | 0.00 | 0.00 | 0.00 | 52 | 1022.0 |
| 20260503011944 | 73 | 166 | 0.0 | 5.0 | 0.00 | 0.00 | 0.00 | 52 | 1021.9 |
| 20260503011441 | 74 | 135 | 2.0 | 3.0 | 0.00 | 0.00 | 0.00 | 53 | 1022.0 |
| 20260503010939 | 75 | 336 | 2.0 | 2.0 | 0.00 | 0.00 | 0.00 | 53 | 1021.8 |
| 20260503010435 | 74 | 72 | 2.0 | 4.0 | 0.00 | 0.00 | 0.00 | 54 | 1022.0 |
| 20260503005933 | 75 | 337 | 2.0 | 3.0 | 0.00 | 0.00 | 0.00 | 51 | 1021.9 |
| 20260503005430 | 75 | 8 | 0.0 | 3.0 | 0.00 | 0.00 | 0.00 | 54 | 1021.9 |
| 20260503004926 | 74 | 151 | 0.0 | 5.0 | 0.00 | 0.00 | 0.00 | 54 | 1022.0 |
| 20260503004423 | 75 | 144 | 2.0 | 3.0 | 0.00 | 0.00 | 0.00 | 52 | 1021.9 |
| 20260503003921 | 75 | 0 | 0.0 | 4.0 | 0.00 | 0.00 | 0.00 | 54 | 1021.9 |
| 20260503003418 | 74 | 46 | 5.0 | 5.0 | 0.00 | 0.00 | 0.00 | 52 | 1022.0 |
| 20260503002915 | 74 | 354 | 1.0 | 7.0 | 0.00 | 0.00 | 0.00 | 53 | 1022.1 |
| 20260503002412 | 74 | 90 | 0.0 | 4.0 | 0.00 | 0.00 | 0.00 | 54 | 1022.0 |
| 20260503001908 | 74 | 345 | 3.0 | 6.0 | 0.00 | 0.00 | 0.00 | 54 | 1022.0 |
| 20260503001404 | 74 | 52 | 0.0 | 5.0 | 0.00 | 0.00 | 0.00 | 53 | 1022.3 |
| 20260503000903 | 75 | 209 | 0.0 | 3.0 | 0.00 | 0.00 | 0.00 | 54 | 1022.2 |
| 20260503000400 | 74 | 206 | 2.0 | 4.0 | 0.00 | 0.00 | 0.00 | 54 | 1022.2 |
| 20260502235856 | 74 | 188 | 3.0 | 4.0 | 0.00 | 0.00 | 0.00 | 54 | 1022.2 |
| 20260502235353 | 74 | 214 | 2.0 | 4.0 | 0.00 | 0.00 | 0.00 | 56 | 1022.2 |
| 20260502234850 | 74 | 264 | 2.0 | 4.0 | 0.00 | 0.00 | 0.00 | 55 | 1022.3 |
| 20260502234347 | 75 | 95 | 2.0 | 3.0 | 0.00 | 0.00 | 0.00 | 56 | 1022.3 |
| 20260502233844 | 74 | 169 | 2.0 | 4.0 | 0.00 | 0.00 | 0.00 | 56 | 1022.4 |
| 20260502233340 | 75 | 183 | 3.0 | 5.0 | 0.00 | 0.00 | 0.00 | 57 | 1022.4 |